C/2005 N5 ( Catalina )

Japanese version
Home page
Total 6,336 html files since Dec. 4, 1995
Updated on April 23, 2006

---------------------------------------------------------------------

* Profile

Discovery Date July 12, 2005
Magnitude 17.2 mag
Discoverer Catalina Sky Survey

* Pictures

* Orbital Elements

Epoch 2005 Aug. 18.0 TT = JDT 2453600.5
T 2005 Aug. 22.68123 TT                                 MPC
q   1.6274058            (2000.0)            P               Q
n   0.00641341     Peri.  207.76465     +0.98451735     -0.09719509
a  28.6908547      Node   156.41190     +0.10741667     +0.99215876
e   0.9432779      Incl.   21.37903     -0.13851807     +0.07857553
P 153.68

* Finding Charts

* Magnitudes Graph

        m1 = 15.0 + 5 log d + 7.5 log r(t - 40)

---------------------------------------------------------------------

The orbital elements are published on M.P.E.C. 2005-S07.
The charts are made with StellaNavigator Ver.2.0 for Windows (AstroArts / ASCII).
The magnitudes graphs are made with Comet for Windows.

---------------------------------------------------------------------

Copyright(C) 1995-2008 Seiichi Yoshida (comet@aerith.net). All rights reserved.